This demonstration page uses our WeatherBlox Daily Observations layout. Learn more.

Hourly Observations for May 6, 2019

Temp ( °F °C ) Dew Point ( °F °C ) Humidity (%) Winds ( mph kmh ) Pressure ( in mb ) Visibility ( mi km ) Precip ( " mm )
12:15 am 00:15 Partly Cloudy 55 13 54 12 94 94 NNE 5 7 29.88 1012 10 16.09344 0 0
12:35 am 00:35 Mostly Cloudy 55 13 54 12 94 94 NNE 5 7 29.88 1012 10 16.09344 0 0
12:55 am 00:55 Cloudy 55 13 54 12 94 94 NNE 3 6 29.88 1012 10 16.09344 0 0
1:15 am 01:15 Cloudy 54 12 54 12 100 100 N 5 7 29.88 1012 10 16.09344 0 0
1:35 am 01:35 Cloudy 54 12 54 12 100 100 N 5 7 29.91 1013 10 16.09344 0 0
1:55 am 01:55 Cloudy 55 13 54 12 94 94 N 5 7 29.91 1013 10 16.09344 0 0
2:15 am 02:15 Cloudy 55 13 54 12 94 94 NNE 3 6 29.91 1013 10 16.09344 0 0
2:35 am 02:35 Cloudy 55 13 54 12 94 94 NNE 5 7 29.91 1013 10 16.09344 0 0
2:55 am 02:55 Cloudy 55 13 54 12 94 94 NNE 3 6 29.91 1013 10 16.09344 0 0
3:15 am 03:15 Cloudy 55 13 54 12 94 94 Calm 29.91 1013 10 16.09344 0 0
3:35 am 03:35 Cloudy 55 13 54 12 94 94 N 3 6 29.91 1013 10 16.09344 0 0
3:55 am 03:55 Cloudy 55 13 54 12 94 94 Calm 29.91 1013 10 16.09344 0 0
4:15 am 04:15 Cloudy 55 13 54 12 94 94 Calm 29.91 1013 10 16.09344 0 0
4:35 am 04:35 Cloudy 54 12 54 12 100 100 Calm 29.94 1014 10 16.09344 0 0
4:55 am 04:55 Cloudy 55 13 54 12 94 94 Calm 29.94 1014 10 16.09344 0 0
5:15 am 05:15 Cloudy 55 13 54 12 94 94 Calm 29.94 1014 10 16.09344 0 0
5:35 am 05:35 Cloudy 54 12 54 12 100 100 Calm 29.94 1014 10 16.09344 0 0
5:55 am 05:55 Cloudy 54 12 54 12 100 100 Calm 29.94 1014 10 16.09344 0 0
6:15 am 06:15 Cloudy 54 12 54 12 100 100 Calm 29.97 1015 10 16.09344 0 0
6:35 am 06:35 Cloudy 54 12 54 12 100 100 Calm 29.97 1015 10 16.09344 0 0
6:55 am 06:55 Cloudy 54 12 54 12 100 100 NNE 3 6 29.97 1015 10 16.09344 0 0
7:15 am 07:15 Cloudy 55 13 54 12 94 94 NNE 5 7 30 1016 10 16.09344 0 0
7:35 am 07:35 Cloudy 55 13 54 12 94 94 Calm 30 1016 10 16.09344 0 0
7:55 am 07:55 Cloudy 57 14 54 12 88 88 NNE 3 6 30 1016 10 16.09344 0 0
8:15 am 08:15 Cloudy 57 14 55 13 94 94 Calm 30 1016 10 16.09344 0 0
8:35 am 08:35 Partly Cloudy 59 15 55 13 88 88 Calm 30.03 1017 10 16.09344 0 0
8:55 am 08:55 Partly Cloudy 61 16 55 13 83 83 Calm 30.03 1017 10 16.09344 0 0
9:15 am 09:15 Mostly Cloudy 61 16 57 14 88 88 NW 7 11 30.03 1017 10 16.09344 0 0
9:35 am 09:35 Cloudy 61 16 57 14 88 88 NW 8 13 30.03 1017 10 16.09344 0 0
9:55 am 09:55 Cloudy 63 17 57 14 83 83 NNW 9 15 30.03 1017 10 16.09344 0 0
10:15 am 10:15 Mostly Cloudy 64 18 59 15 83 83 NW 9 15 30.03 1017 10 16.09344 0 0
10:35 am 10:35 Mostly Cloudy 64 18 57 14 78 78 NNW 9 15 30.06 1018 10 16.09344 0 0
10:55 am 10:55 Mostly Cloudy 66 19 59 15 78 78 NW 8 13 30.06 1018 10 16.09344 0 0
11:15 am 11:15 Partly Cloudy 68 20 59 15 73 73 NW 8 13 30.06 1018 10 16.09344 0 0
11:35 am 11:35 Partly Cloudy 68 20 59 15 73 73 N 6 9 30.03 1017 10 16.09344 0 0
11:55 am 11:55 Partly Cloudy 70 21 59 15 69 69 N 5 7 30.03 1017 10 16.09344 0 0
12:15 pm 12:15 Mostly Cloudy 68 20 55 13 64 64 NNE 3 6 30.03 1017 10 16.09344 0 0
12:35 pm 12:35 Mostly Cloudy 70 21 55 13 60 60 N 9 15 30.03 1017 10 16.09344 0 0
12:55 pm 12:55 Mostly Cloudy 70 21 55 13 60 60 Calm 30.03 1017 10 16.09344 0 0
1:15 pm 13:15 Partly Cloudy 72 22 57 14 61 61 W 5 7 30.03 1017 10 16.09344 0 0
1:35 pm 13:35 Partly Cloudy 72 22 55 13 57 57 Calm 30 1016 10 16.09344 0 0
1:55 pm 13:55 Partly Cloudy 73 23 59 15 61 61 NW 9 15 30.03 1017 10 16.09344 0 0
2:15 pm 14:15 Mostly Cloudy 72 22 57 14 61 61 NNW 8 13 30.03 1017 10 16.09344 0 0
2:35 pm 14:35 Partly Cloudy 73 23 57 14 57 57 WNW 6 9 30.03 1017 10 16.09344 0 0
2:55 pm 14:55 Mostly Cloudy 73 23 59 15 61 61 NNW 7 11 30.03 1017 10 16.09344 0 0
3:15 pm 15:15 Mostly Cloudy 73 23 55 13 53 53 NNW 9 15 30.03 1017 10 16.09344 0 0
3:35 pm 15:35 Sunny 73 23 55 13 53 53 Calm 30.03 1017 10 16.09344 0 0
3:55 pm 15:55 Partly Cloudy 73 23 55 13 53 53 NNW 6 9 30.03 1017 10 16.09344 0 0
4:15 pm 16:15 Partly Cloudy 75 24 54 12 47 47 W 5 7 30 1016 10 16.09344 0 0
4:35 pm 16:35 Sunny 75 24 52 11 44 44 W 3 6 30 1016 10 16.09344 0 0
4:55 pm 16:55 Sunny 75 24 54 12 47 47 NNW 6 9 30.03 1017 10 16.09344 0 0
5:15 pm 17:15 Sunny 75 24 54 12 47 47 W 3 6 30.03 1017 10 16.09344 0 0
5:35 pm 17:35 Sunny 77 25 54 12 44 44 Calm 30.03 1017 10 16.09344 0 0
5:55 pm 17:55 Sunny 73 23 54 12 50 50 NW 6 9 30.03 1017 10 16.09344 0 0
6:15 pm 18:15 Sunny 75 24 52 11 44 44 Calm 30.03 1017 10 16.09344 0 0
6:35 pm 18:35 Sunny 77 25 52 11 42 42 Calm 30.03 1017 10 16.09344 0 0
6:55 pm 18:55 Sunny 75 24 54 12 47 47 Calm 30.03 1017 10 16.09344 0 0
7:15 pm 19:15 Sunny 73 23 54 12 50 50 WNW 3 6 30.03 1017 10 16.09344 0 0
7:35 pm 19:35 Sunny 73 23 54 12 50 50 SSW 3 6 30.06 1018 10 16.09344 0 0
7:55 pm 19:55 Sunny 73 23 55 13 53 53 S 5 7 30.06 1018 10 16.09344 0 0
8:15 pm 20:15 Clear 73 23 54 12 50 50 Calm 30.06 1018 10 16.09344 0 0
8:35 pm 20:35 Clear 70 21 55 13 60 60 Calm 30.06 1018 10 16.09344 0 0
8:55 pm 20:55 Clear 64 18 57 14 78 78 S 3 6 30.06 1018 10 16.09344 0 0
9:15 pm 21:15 Clear 63 17 59 15 88 88 Calm 30.09 1019 10 16.09344 0 0
9:35 pm 21:35 Clear 63 17 59 15 88 88 Calm 30.09 1019 10 16.09344 0 0
9:55 pm 21:55 Clear 63 17 57 14 83 83 SW 3 6 30.09 1019 10 16.09344 0 0
10:15 pm 22:15 Clear 61 16 57 14 88 88 WSW 3 6 30.09 1019 10 16.09344 0 0
10:35 pm 22:35 Clear 61 16 57 14 88 88 SW 3 6 30.09 1019 10 16.09344 0 0
10:55 pm 22:55 Clear 61 16 57 14 88 88 SSW 3 6 30.09 1019 10 16.09344 0 0
11:15 pm 23:15 Clear 59 15 55 13 88 88 SW 3 6 30.09 1019 10 16.09344 0 0
11:35 pm 23:35 Clear 57 14 55 13 94 94 WSW 3 6 30.09 1019 10 16.09344 0 0
11:55 pm 23:55 Clear 59 15 57 14 94 94 SW 5 7 30.09 1019 10 16.09344 0 0

Powered by AerisWeather